Time,TemperatureF,DewpointF,PressureIn,WindDirection,WindDirectionDegrees,WindSpeedMPH,WindSpeedGustMPH,Humidity,HourlyPrecipIn,Conditions,Clouds,dailyrainin,SoftwareType,DateUTC
2013-02-16 00:12:00,35.8,36.0,29.86,SSE,158,0.0,-999.0,99,-99.99,,,0.00,weatherlink.com 1.10,2013-02-16 05:12:00,
2013-02-16 00:27:00,35.8,36.0,29.86,SSE,158,0.0,-999.0,99,-99.99,,,0.00,weatherlink.com 1.10,2013-02-16 05:27:00,
2013-02-16 00:42:00,35.8,36.0,29.86,SSE,158,0.0,-999.0,99,-99.99,,,0.00,weatherlink.com 1.10,2013-02-16 05:42:00,
2013-02-16 00:57:00,35.6,35.0,29.85,SSE,158,0.0,-999.0,99,-99.99,,,0.00,weatherlink.com 1.10,2013-02-16 05:57:00,
2013-02-16 01:12:00,35.8,36.0,29.85,SSE,158,0.0,-999.0,99,-99.99,,,0.00,weatherlink.com 1.10,2013-02-16 06:12:00,
2013-02-16 01:27:00,36.2,36.0,29.85,SSE,158,0.0,-999.0,100,-99.99,,,0.00,weatherlink.com 1.10,2013-02-16 06:27:00,
2013-02-16 01:42:00,37.0,37.0,29.84,SSE,158,0.0,-999.0,100,-99.99,,,0.00,weatherlink.com 1.10,2013-02-16 06:42:00,
2013-02-16 01:57:00,37.2,37.0,29.84,SSE,158,0.0,-999.0,100,-99.99,,,0.00,weatherlink.com 1.10,2013-02-16 06:57:00,
2013-02-16 02:12:00,36.6,37.0,29.84,SSE,158,0.0,-999.0,100,-99.99,,,0.00,weatherlink.com 1.10,2013-02-16 07:12:00,
2013-02-16 02:27:00,36.3,36.0,29.83,SSE,158,0.0,-999.0,100,-99.99,,,0.00,weatherlink.com 1.10,2013-02-16 07:27:00,
2013-02-16 02:42:00,36.5,37.0,29.82,SSE,158,0.0,-999.0,100,-99.99,,,0.00,weatherlink.com 1.10,2013-02-16 07:42:00,
2013-02-16 02:57:00,36.0,36.0,29.82,SSE,158,0.0,-999.0,100,-99.99,,,0.00,weatherlink.com 1.10,2013-02-16 07:57:00,
2013-02-16 03:12:00,36.3,36.0,29.81,SSE,158,0.0,-999.0,100,-99.99,,,0.00,weatherlink.com 1.10,2013-02-16 08:12:00,
2013-02-16 03:27:00,36.5,37.0,29.82,SSE,158,0.0,-999.0,100,-99.99,,,0.00,weatherlink.com 1.10,2013-02-16 08:27:00,
2013-02-16 03:42:00,36.3,36.0,29.81,SSE,158,0.0,-999.0,100,-99.99,,,0.00,weatherlink.com 1.10,2013-02-16 08:42:00,
2013-02-16 03:57:00,35.3,35.0,29.81,SSE,154,0.0,-999.0,100,-99.99,,,0.00,weatherlink.com 1.10,2013-02-16 08:57:00,
2013-02-16 04:12:00,34.9,35.0,29.81,SSE,154,0.0,-999.0,100,-99.99,,,0.00,weatherlink.com 1.10,2013-02-16 09:12:00,
2013-02-16 04:27:00,34.7,35.0,29.82,SSE,154,0.0,-999.0,100,-99.99,,,0.00,weatherlink.com 1.10,2013-02-16 09:27:00,
2013-02-16 04:42:00,34.6,35.0,29.82,NNW,334,0.0,-999.0,100,-99.99,,,0.00,weatherlink.com 1.10,2013-02-16 09:42:00,
2013-02-16 04:57:00,34.3,34.0,29.82,NNW,334,0.0,-999.0,100,-99.99,,,0.00,weatherlink.com 1.10,2013-02-16 09:57:00,
2013-02-16 05:12:00,34.6,35.0,29.82,NNW,334,0.0,-999.0,100,-99.99,,,0.00,weatherlink.com 1.10,2013-02-16 10:12:00,
2013-02-16 05:27:00,34.3,34.0,29.81,NNW,331,0.0,-999.0,100,-99.99,,,0.00,weatherlink.com 1.10,2013-02-16 10:27:00,
2013-02-16 05:42:00,33.7,34.0,29.81,NNE,23,0.0,-999.0,100,-99.99,,,0.00,weatherlink.com 1.10,2013-02-16 10:42:00,
2013-02-16 06:12:00,33.1,33.0,29.82,NNW,343,1.0,-999.0,100,-99.99,,,0.00,weatherlink.com 1.10,2013-02-16 11:12:00,
2013-02-16 06:27:00,32.9,33.0,29.82,NNW,346,0.0,-999.0,100,-99.99,,,0.00,weatherlink.com 1.10,2013-02-16 11:27:00,
2013-02-16 06:42:00,32.8,33.0,29.82,NNW,347,0.0,-999.0,100,-99.99,,,0.00,weatherlink.com 1.10,2013-02-16 11:42:00,
2013-02-16 06:57:00,32.8,33.0,29.82,NNW,348,0.0,-999.0,100,-99.99,,,0.00,weatherlink.com 1.10,2013-02-16 11:57:00,
2013-02-16 07:12:00,32.9,33.0,29.83,NNW,348,0.0,-999.0,100,-99.99,,,0.00,weatherlink.com 1.10,2013-02-16 12:12:00,
2013-02-16 07:27:00,33.7,34.0,29.83,NNW,341,0.0,-999.0,100,-99.99,,,0.00,weatherlink.com 1.10,2013-02-16 12:27:00,
2013-02-16 07:42:00,33.8,34.0,29.83,NNE,22,2.0,-999.0,99,-99.99,,,0.00,weatherlink.com 1.10,2013-02-16 12:42:00,
2013-02-16 07:57:00,34.1,33.0,29.84,NE,34,0.0,-999.0,97,-99.99,,,0.00,weatherlink.com 1.10,2013-02-16 12:57:00,
2013-02-16 08:12:00,34.9,34.0,29.84,NW,324,3.0,-999.0,95,-99.99,,,0.00,weatherlink.com 1.10,2013-02-16 13:12:00,
2013-02-16 08:27:00,35.0,32.0,29.84,NNW,348,1.0,-999.0,90,-99.99,,,0.00,weatherlink.com 1.10,2013-02-16 13:27:00,
2013-02-16 08:42:00,35.2,31.0,29.84,ESE,113,0.0,-999.0,85,-99.99,,,0.00,weatherlink.com 1.10,2013-02-16 13:42:00,
2013-02-16 08:57:00,35.5,31.0,29.84,NE,34,2.0,-999.0,82,-99.99,,,0.00,weatherlink.com 1.10,2013-02-16 13:57:00,
2013-02-16 09:12:00,35.8,30.0,29.83,NE,34,1.0,-999.0,79,-99.99,,,0.00,weatherlink.com 1.10,2013-02-16 14:12:00,
2013-02-16 09:27:00,35.9,30.0,29.83,NNW,329,1.0,-999.0,78,-99.99,,,0.00,weatherlink.com 1.10,2013-02-16 14:27:00,
2013-02-16 09:42:00,36.2,30.0,29.83,WNW,284,2.0,-999.0,78,-99.99,,,0.00,weatherlink.com 1.10,2013-02-16 14:42:00,
2013-02-16 09:57:00,36.9,30.0,29.82,ENE,69,4.0,-999.0,76,-99.99,,,0.01,weatherlink.com 1.10,2013-02-16 14:57:00,
2013-02-16 10:12:00,36.6,30.0,29.82,East,84,7.0,-999.0,77,-99.99,,,0.01,weatherlink.com 1.10,2013-02-16 15:12:00,
2013-02-16 10:27:00,36.2,30.0,29.82,West,281,5.0,-999.0,78,-99.99,,,0.01,weatherlink.com 1.10,2013-02-16 15:27:00,
2013-02-16 10:42:00,35.8,30.0,29.82,NW,316,0.0,-999.0,80,-99.99,,,0.01,weatherlink.com 1.10,2013-02-16 15:42:00,
2013-02-16 10:57:00,35.6,30.0,29.82,East,94,2.0,-999.0,80,-99.99,,,0.01,weatherlink.com 1.10,2013-02-16 15:57:00,
2013-02-16 11:12:00,35.3,30.0,29.82,NNW,336,1.0,-999.0,81,-99.99,,,0.01,weatherlink.com 1.10,2013-02-16 16:12:00,
2013-02-16 11:27:00,35.3,31.0,29.81,ENE,64,2.0,-999.0,83,-99.99,,,0.01,weatherlink.com 1.10,2013-02-16 16:27:00,
2013-02-16 11:42:00,35.2,31.0,29.81,NNW,327,1.0,-999.0,84,-99.99,,,0.01,weatherlink.com 1.10,2013-02-16 16:42:00,
2013-02-16 11:57:00,35.0,31.0,29.80,WNW,297,2.0,-999.0,86,-99.99,,,0.01,weatherlink.com 1.10,2013-02-16 16:57:00,
2013-02-16 12:12:00,34.9,31.0,29.79,North,5,1.0,-999.0,87,-99.99,,,0.01,weatherlink.com 1.10,2013-02-16 17:12:00,
2013-02-16 12:27:00,34.7,32.0,29.79,NE,47,0.0,-999.0,88,-99.99,,,0.01,weatherlink.com 1.10,2013-02-16 17:27:00,
2013-02-16 12:42:00,34.7,32.0,29.78,NE,38,0.0,-999.0,88,-99.99,,,0.01,weatherlink.com 1.10,2013-02-16 17:42:00,
2013-02-16 12:57:00,34.9,31.0,29.78,NNE,16,5.0,-999.0,87,-99.99,,,0.01,weatherlink.com 1.10,2013-02-16 17:57:00,
2013-02-16 13:12:00,34.6,31.0,29.77,NNW,341,1.0,-999.0,86,-99.99,,,0.01,weatherlink.com 1.10,2013-02-16 18:12:00,
2013-02-16 13:27:00,34.4,31.0,29.77,NNE,22,0.0,-999.0,87,-99.99,,,0.01,weatherlink.com 1.10,2013-02-16 18:27:00,
2013-02-16 13:42:00,34.6,31.0,29.77,NNE,23,0.0,-999.0,87,-99.99,,,0.01,weatherlink.com 1.10,2013-02-16 18:42:00,
2013-02-16 13:57:00,34.4,31.0,29.76,NNE,19,2.0,-999.0,88,-99.99,,,0.01,weatherlink.com 1.10,2013-02-16 18:57:00,
2013-02-16 14:12:00,34.1,31.0,29.76,NE,56,1.0,-999.0,89,-99.99,,,0.01,weatherlink.com 1.10,2013-02-16 19:12:00,
2013-02-16 14:27:00,34.0,31.0,29.75,NE,54,1.0,-999.0,90,-99.99,,,0.01,weatherlink.com 1.10,2013-02-16 19:27:00,
2013-02-16 14:42:00,33.8,32.0,29.75,WNW,300,1.0,-999.0,91,-99.99,,,0.01,weatherlink.com 1.10,2013-02-16 19:42:00,
2013-02-16 14:57:00,33.5,32.0,29.75,NNE,14,1.0,-999.0,92,-99.99,,,0.02,weatherlink.com 1.10,2013-02-16 19:57:00,
2013-02-16 15:12:00,33.5,32.0,29.74,North,5,0.0,-999.0,92,-99.99,,,0.02,weatherlink.com 1.10,2013-02-16 20:12:00,
2013-02-16 15:27:00,33.4,32.0,29.74,NNW,340,0.0,-999.0,93,-99.99,,,0.02,weatherlink.com 1.10,2013-02-16 20:27:00,
2013-02-16 15:42:00,33.4,32.0,29.74,East,93,0.0,-999.0,94,-99.99,,,0.02,weatherlink.com 1.10,2013-02-16 20:42:00,
2013-02-16 15:57:00,33.2,32.0,29.73,North,11,1.0,-999.0,95,-99.99,,,0.02,weatherlink.com 1.10,2013-02-16 20:57:00,
2013-02-16 16:12:00,33.2,32.0,29.74,NNW,343,1.0,-999.0,95,-99.99,,,0.02,weatherlink.com 1.10,2013-02-16 21:12:00,
2013-02-16 16:27:00,33.1,32.0,29.73,North,10,1.0,-999.0,96,-99.99,,,0.02,weatherlink.com 1.10,2013-02-16 21:27:00,
2013-02-16 16:42:00,33.1,32.0,29.73,ESE,119,1.0,-999.0,96,-99.99,,,0.02,weatherlink.com 1.10,2013-02-16 21:42:00,
2013-02-16 16:57:00,32.9,32.0,29.72,North,5,2.0,-999.0,96,-99.99,,,0.02,weatherlink.com 1.10,2013-02-16 21:57:00,
2013-02-16 17:12:00,32.9,32.0,29.72,North,5,1.0,-999.0,96,-99.99,,,0.02,weatherlink.com 1.10,2013-02-16 22:12:00,
2013-02-16 17:27:00,32.8,32.0,29.72,North,5,0.0,-999.0,96,-99.99,,,0.03,weatherlink.com 1.10,2013-02-16 22:27:00,
2013-02-16 17:42:00,32.8,32.0,29.71,North,5,0.0,-999.0,96,-99.99,,,0.03,weatherlink.com 1.10,2013-02-16 22:42:00,
2013-02-16 17:57:00,32.8,32.0,29.71,North,5,0.0,-999.0,97,-99.99,,,0.03,weatherlink.com 1.10,2013-02-16 22:57:00,
2013-02-16 18:12:00,32.8,32.0,29.72,North,5,0.0,-999.0,97,-99.99,,,0.03,weatherlink.com 1.10,2013-02-16 23:12:00,
2013-02-16 18:27:00,32.8,32.0,29.73,North,5,0.0,-999.0,97,-99.99,,,0.03,weatherlink.com 1.10,2013-02-16 23:27:00,
2013-02-16 18:42:00,32.8,32.0,29.72,North,5,0.0,-999.0,97,-99.99,,,0.03,weatherlink.com 1.10,2013-02-16 23:42:00,
2013-02-16 18:57:00,32.7,32.0,29.72,North,5,0.0,-999.0,97,-99.99,,,0.03,weatherlink.com 1.10,2013-02-16 23:57:00,
2013-02-16 19:12:00,32.7,32.0,29.71,NE,51,0.0,-999.0,97,-99.99,,,0.03,weatherlink.com 1.10,2013-02-17 00:12:00,
2013-02-16 19:27:00,32.7,32.0,29.71,East,92,0.0,-999.0,97,-99.99,,,0.03,weatherlink.com 1.10,2013-02-17 00:27:00,
2013-02-16 19:42:00,32.5,32.0,29.70,ENE,75,0.0,-999.0,98,-99.99,,,0.03,weatherlink.com 1.10,2013-02-17 00:42:00,
2013-02-16 19:57:00,32.5,32.0,29.70,East,80,0.0,-999.0,98,-99.99,,,0.03,weatherlink.com 1.10,2013-02-17 00:57:00,
2013-02-16 20:12:00,32.4,32.0,29.69,NNE,30,2.0,-999.0,98,-99.99,,,0.03,weatherlink.com 1.10,2013-02-17 01:12:00,
2013-02-16 20:27:00,32.4,32.0,29.68,ENE,59,2.0,-999.0,98,-99.99,,,0.03,weatherlink.com 1.10,2013-02-17 01:27:00,
2013-02-16 20:42:00,32.4,32.0,29.67,NNE,26,0.0,-999.0,98,-99.99,,,0.03,weatherlink.com 1.10,2013-02-17 01:42:00,
2013-02-16 20:57:00,32.5,32.0,29.67,NNE,23,0.0,-999.0,98,-99.99,,,0.03,weatherlink.com 1.10,2013-02-17 01:57:00,
2013-02-16 21:12:00,32.5,32.0,29.67,NNE,22,1.0,-999.0,98,-99.99,,,0.03,weatherlink.com 1.10,2013-02-17 02:12:00,
2013-02-16 21:27:00,32.5,32.0,29.67,WNW,294,1.0,-999.0,98,-99.99,,,0.03,weatherlink.com 1.10,2013-02-17 02:27:00,
2013-02-16 21:42:00,32.5,32.0,29.66,NNE,13,0.0,-999.0,97,-99.99,,,0.03,weatherlink.com 1.10,2013-02-17 02:42:00,
2013-02-16 21:57:00,32.5,32.0,29.65,East,80,0.0,-999.0,97,-99.99,,,0.03,weatherlink.com 1.10,2013-02-17 02:57:00,
2013-02-16 22:12:00,32.5,32.0,29.64,South,172,0.0,-999.0,97,-99.99,,,0.03,weatherlink.com 1.10,2013-02-17 03:12:00,
2013-02-16 22:27:00,32.5,32.0,29.64,South,189,0.0,-999.0,96,-99.99,,,0.03,weatherlink.com 1.10,2013-02-17 03:27:00,
2013-02-16 22:42:00,32.5,32.0,29.64,North,360,0.0,-999.0,96,-99.99,,,0.03,weatherlink.com 1.10,2013-02-17 03:42:00,
2013-02-16 22:57:00,32.4,31.0,29.62,NNW,334,2.0,-999.0,96,-99.99,,,0.03,weatherlink.com 1.10,2013-02-17 03:57:00,
2013-02-16 23:12:00,31.9,31.0,29.60,West,259,2.0,-999.0,95,-99.99,,,0.03,weatherlink.com 1.10,2013-02-17 04:12:00,
2013-02-16 23:27:00,31.3,30.0,29.59,ENE,65,3.0,-999.0,93,-99.99,,,0.03,weatherlink.com 1.10,2013-02-17 04:27:00,
2013-02-16 23:42:00,31.2,29.0,29.58,NNW,330,1.0,-999.0,92,-99.99,,,0.04,weatherlink.com 1.10,2013-02-17 04:42:00,
2013-02-16 23:57:00,31.0,29.0,29.57,NE,47,1.0,-999.0,90,-99.99,,,0.04,weatherlink.com 1.10,2013-02-17 04:57:00,